When you browse on this site, cookies collect data to enhance your experience and personalize the content and advertising you see.
Visit our Privacy Policy to learn more. By continuing to use the site, you agree to this use of cookies and data.
  • In Hungary
  • List of Countries
  • For 7 days
  • Water Temperature
  • Weather Map
  • News
  • Weather Widgets
  • user-avatar
    Login

    Hourly Weather Bamor Kalan

    Today, 22 August, Thursday

    Time Temperature Precipitation Wind Pressure Humidity
    00:00 +28°C° 0.6 mm 1 mps 724 mmHg 83%
    01:00 +27°C° 0.6 mm 1 mps 723 mmHg 83%
    02:00 +27°C° 0.6 mm 2 mps 723 mmHg 83%
    03:00 +27°C° 0 mm 1 mps 723 mmHg 84%
    04:00 +27°C° 0 mm 1 mps 723 mmHg 84%
    05:00 +27°C° 0 mm 3 mps 723 mmHg 87%
    06:00 +28°C° 0 mm 4 mps 723 mmHg 83%
    07:00 +29°C° 0 mm 4 mps 724 mmHg 80%
    08:00 +30°C° 0 mm 5 mps 724 mmHg 76%
    09:00 +32°C° 0.2 mm 5 mps 724 mmHg 69%
    10:00 +34°C° 0.2 mm 5 mps 724 mmHg 63%
    11:00 +35°C° 0.2 mm 5 mps 724 mmHg 56%
    12:00 +35°C° 0.1 mm 5 mps 723 mmHg 57%
    13:00 +35°C° 0.1 mm 5 mps 723 mmHg 59%
    14:00 +35°C° 0.1 mm 5 mps 722 mmHg 60%
    15:00 +34°C° 0.7 mm 4 mps 722 mmHg 63%
    16:00 +33°C° 0.7 mm 4 mps 722 mmHg 67%
    17:00 +33°C° 0.7 mm 4 mps 722 mmHg 70%
    18:00 +31°C° 0 mm 3 mps 722 mmHg 73%
    19:00 +30°C° 0 mm 3 mps 722 mmHg 76%
    20:00 +29°C° 0 mm 3 mps 723 mmHg 79%
    21:00 +29°C° 0 mm 2 mps 723 mmHg 80%
    22:00 +28°C° 0 mm 2 mps 723 mmHg 80%
    23:00 +28°C° 0 mm 1 mps 723 mmHg 81%

    Tomorrow, 23 August, Friday

    Time Temperature Precipitation Wind Pressure Humidity
    00:00 +28°C° 0 mm 2 mps 723 mmHg 81%
    01:00 +28°C° 0 mm 2 mps 723 mmHg 82%
    02:00 +27°C° 0 mm 2 mps 722 mmHg 82%
    03:00 +27°C° 0 mm 3 mps 722 mmHg 82%
    04:00 +27°C° 0 mm 3 mps 722 mmHg 82%
    05:00 +27°C° 0 mm 4 mps 722 mmHg 82%
    06:00 +28°C° 0 mm 4 mps 723 mmHg 79%
    07:00 +29°C° 0 mm 5 mps 723 mmHg 76%
    08:00 +30°C° 0 mm 5 mps 724 mmHg 74%
    09:00 +32°C° 0 mm 5 mps 724 mmHg 71%
    10:00 +33°C° 0 mm 5 mps 724 mmHg 68%
    11:00 +34°C° 0 mm 5 mps 724 mmHg 65%
    12:00 +34°C° 1 mm 5 mps 723 mmHg 64%
    13:00 +34°C° 1 mm 5 mps 722 mmHg 63%
    14:00 +35°C° 1 mm 5 mps 722 mmHg 62%
    15:00 +34°C° 1.2 mm 5 mps 722 mmHg 66%
    16:00 +34°C° 1.2 mm 4 mps 722 mmHg 69%
    17:00 +33°C° 1.2 mm 3 mps 721 mmHg 72%
    18:00 +31°C° 0.1 mm 3 mps 722 mmHg 74%
    19:00 +31°C° 0.1 mm 2 mps 722 mmHg 76%
    20:00 +30°C° 0.1 mm 2 mps 723 mmHg 78%
    21:00 +30°C° 0.2 mm 2 mps 723 mmHg 80%
    22:00 +29°C° 0.2 mm 2 mps 723 mmHg 81%
    23:00 +29°C° 0.2 mm 2 mps 723 mmHg 82%

    Day after tomorrow, 24 August, Saturday

    Time Temperature Precipitation Wind Pressure Humidity
    00:00 +29°C° 0.7 mm 2 mps 723 mmHg 84%
    01:00 +28°C° 0.7 mm 3 mps 722 mmHg 85%
    02:00 +28°C° 0.7 mm 4 mps 722 mmHg 86%
    03:00 +28°C° 0.4 mm 4 mps 722 mmHg 86%
    04:00 +28°C° 0.4 mm 5 mps 722 mmHg 86%
    05:00 +27°C° 0.4 mm 5 mps 722 mmHg 87%
    06:00 +28°C° 0 mm 6 mps 723 mmHg 84%
    07:00 +29°C° 0 mm 6 mps 723 mmHg 81%
    08:00 +30°C° 0 mm 6 mps 724 mmHg 78%
    09:00 +32°C° 0 mm 6 mps 724 mmHg 75%
    10:00 +33°C° 0 mm 6 mps 724 mmHg 71%
    11:00 +34°C° 0 mm 6 mps 724 mmHg 68%
    12:00 +33°C° 1.2 mm 6 mps 723 mmHg 69%
    13:00 +33°C° 1.2 mm 5 mps 722 mmHg 70%
    14:00 +33°C° 1.2 mm 5 mps 722 mmHg 71%
    15:00 +33°C° 1 mm 5 mps 722 mmHg 74%
    16:00 +32°C° 1 mm 4 mps 721 mmHg 76%
    17:00 +30°C° 1 mm 4 mps 721 mmHg 79%
    18:00 +30°C° 1.6 mm 4 mps 721 mmHg 81%
    19:00 +29°C° 1.6 mm 4 mps 722 mmHg 83%
    20:00 +28°C° 1.6 mm 4 mps 722 mmHg 86%
    21:00 +28°C° 4.2 mm 4 mps 723 mmHg 89%
    22:00 +27°C° 4.2 mm 3 mps 723 mmHg 92%
    23:00 +27°C° 4.2 mm 3 mps 723 mmHg 95%

    25 August, Sunday

    Time Temperature Precipitation Wind Pressure Humidity
    00:00 +27°C° 1.3 mm 4 mps 723 mmHg 94%
    01:00 +27°C° 1.3 mm 4 mps 722 mmHg 93%
    02:00 +27°C° 1.3 mm 5 mps 722 mmHg 92%
    03:00 +27°C° 0.1 mm 5 mps 722 mmHg 92%
    04:00 +26°C° 0.1 mm 5 mps 722 mmHg 92%
    05:00 +26°C° 0.1 mm 5 mps 722 mmHg 92%
    06:00 +26°C° 0.4 mm 5 mps 722 mmHg 91%
    07:00 +26°C° 0.4 mm 5 mps 723 mmHg 91%
    08:00 +26°C° 0.4 mm 5 mps 723 mmHg 90%
    09:00 +27°C° 0.1 mm 5 mps 723 mmHg 88%
    10:00 +28°C° 0.1 mm 4 mps 723 mmHg 86%
    11:00 +29°C° 0.1 mm 4 mps 723 mmHg 84%
    12:00 +29°C° 1.1 mm 4 mps 723 mmHg 84%
    13:00 +29°C° 1.1 mm 3 mps 722 mmHg 84%
    14:00 +29°C° 1.1 mm 3 mps 721 mmHg 84%
    15:00 +29°C° 0.8 mm 2 mps 721 mmHg 86%
    16:00 +28°C° 0.8 mm 2 mps 721 mmHg 88%
    17:00 +27°C° 0.8 mm 2 mps 721 mmHg 89%
    18:00 +27°C° 0.3 mm 2 mps 721 mmHg 90%
    19:00 +27°C° 0.3 mm 2 mps 721 mmHg 91%
    20:00 +27°C° 0.3 mm 2 mps 722 mmHg 91%
    21:00 +27°C° 0.1 mm 2 mps 722 mmHg 91%
    22:00 +27°C° 0.1 mm 1 mps 722 mmHg 92%
    23:00 +27°C° 0.1 mm 1 mps 722 mmHg 92%

    26 August, Monday

    Time Temperature Precipitation Wind Pressure Humidity
    00:00 +27°C° 0.6 mm 1 mps 722 mmHg 92%
    01:00 +27°C° 0.6 mm 1 mps 721 mmHg 92%
    02:00 +27°C° 0.6 mm 1 mps 721 mmHg 92%
    03:00 +27°C° 0.8 mm 1 mps 721 mmHg 93%
    04:00 +26°C° 0.8 mm 2 mps 721 mmHg 93%
    05:00 +26°C° 0.8 mm 2 mps 721 mmHg 93%
    06:00 +27°C° 0.6 mm 3 mps 721 mmHg 91%
    07:00 +27°C° 0.6 mm 4 mps 722 mmHg 89%
    08:00 +28°C° 0.6 mm 4 mps 722 mmHg 87%
    09:00 +29°C° 1.5 mm 5 mps 722 mmHg 85%
    10:00 +30°C° 1.5 mm 5 mps 722 mmHg 82%
    11:00 +32°C° 1.5 mm 5 mps 721 mmHg 79%
    12:00 +32°C° 2.6 mm 5 mps 721 mmHg 79%
    13:00 +32°C° 2.6 mm 5 mps 720 mmHg 79%
    14:00 +32°C° 2.6 mm 4 mps 720 mmHg 79%
    15:00 +30°C° 2.7 mm 3 mps 720 mmHg 84%
    16:00 +29°C° 2.7 mm 2 mps 719 mmHg 88%
    17:00 +28°C° 2.7 mm 1 mps 719 mmHg 93%
    18:00 +28°C° 0.7 mm 1 mps 719 mmHg 93%
    19:00 +28°C° 0.7 mm 1 mps 720 mmHg 92%
    20:00 +26°C° 0.7 mm 0 mps 721 mmHg 92%
    21:00 +28°C° 0.2 mm 1 mps 721 mmHg 91%
    22:00 +28°C° 0.2 mm 1 mps 721 mmHg 91%
    23:00 +27°C° 0.2 mm 1 mps 721 mmHg 91%

    27 August, Tuesday

    Time Temperature Precipitation Wind Pressure Humidity
    00:00 +27°C° 0.1 mm 1 mps 720 mmHg 91%
    01:00 +27°C° 0.1 mm 1 mps 720 mmHg 92%
    02:00 +27°C° 0.1 mm 1 mps 719 mmHg 93%
    03:00 +27°C° 1.1 mm 1 mps 719 mmHg 92%
    04:00 +27°C° 1.1 mm 1 mps 720 mmHg 92%
    05:00 +25°C° 1.1 mm 0 mps 720 mmHg 91%
    06:00 +28°C° 0.6 mm 1 mps 720 mmHg 89%
    07:00 +28°C° 0.6 mm 2 mps 720 mmHg 86%
    08:00 +29°C° 0.6 mm 2 mps 721 mmHg 84%
    09:00 +30°C° 0.6 mm 2 mps 721 mmHg 80%
    10:00 +31°C° 0.6 mm 2 mps 721 mmHg 77%
    11:00 +32°C° 0.6 mm 2 mps 721 mmHg 73%
    12:00 +32°C° 2.3 mm 2 mps 720 mmHg 74%
    13:00 +33°C° 2.3 mm 3 mps 720 mmHg 76%
    14:00 +31°C° 2.3 mm 3 mps 719 mmHg 77%
    15:00 +32°C° 1.7 mm 4 mps 719 mmHg 80%
    16:00 +30°C° 1.7 mm 4 mps 719 mmHg 83%
    17:00 +29°C° 1.7 mm 5 mps 719 mmHg 86%
    18:00 +28°C° 0.1 mm 5 mps 719 mmHg 87%
    19:00 +28°C° 0.1 mm 5 mps 720 mmHg 89%
    20:00 +27°C° 0.1 mm 5 mps 721 mmHg 90%
    21:00 +26°C° 0 mm 4 mps 721 mmHg 91%
    22:00 +26°C° 0 mm 4 mps 721 mmHg 91%
    23:00 +26°C° 0 mm 3 mps 721 mmHg 92%
    Show more